STARLINK-33719, 63578

Orbit data source: Space-Track

STARLINK-33719, 63578 is a payload satellite owned by SpaceX/Seattle (US) in LEO that was launched on Mon, 14 Apr 2025 UTC via an FALCON 9 launch vehicle from the Air Force Eastern Test Range (AFETR). Payload-class satellites include a variety of spacecraft equipped with specific instruments for various scientific and technological missions. These include communications satellites like Starlink; space stations such as the ISS; scientific satellites like the Hubble; Earth observation satellites from companies like Planet Labs, Umbra, and HawkEye 360; GPS; miniature CubeSats for education and research; and military/defense satellites.

Loading next visibility...
Identifier
63578, 2025-076K
Orbit
LEO
Country
Flag of USUS
Related business
Manufacturer
SpaceX/Seattle
Mission
Operational Commercial Communications
Bus & Motor
STARLINK V2MO, Unknown motor
Mass
575 kg wet, ~530 kg dry
Launch date (UTC)
2025-04-14 (7 months ago)
Launch vehicle
FALCON 9
Launch site
Air Force Eastern Test Range (AFETR)
Object type
Payload
Rocket body
Debris
Shape & HBR
Box + 2 Pan, 17.7 m
Radar Cross Section
36.964 m², Large (>1 m²)

Expand to show TLE details & history
Last TLE update: 17 hours ago

TLE from 17 hours ago
0 STARLINK-33719
1 63578U 25076K   25302.40942524  .00046437  00000-0  16846-2 0  9992
2 63578  43.0006 343.0283 0000962 248.1071 111.9679 15.27614938 31753
Epoch: 2025-10-29T09:49Z
TLE epoch observation values (Epoch: 2025-10-29T09:49:34.340Z)
Latitude
0.00001°
Longitude
157.65225°
Altitude
482.967 km
Speed
7.626 km/s
True Right ascension
22h 52m 06s
True Declination
0° 00' 00"
Sunlit
Object was in full shadow at epoch
Visualization orbit readout
Latitude
Unknown
Longitude
Unknown
Altitude
Unknown
Speed
Unknown
Apparent Right ascension
Unknown
Apparent Declination
Unknown
Sunlit
N/A
Visualization observer readout
Local Sidereal Time
22:52:39
Azimuth
Unknown
Elevation
Unknown
Doppler factor
Unknown
Orbital elements
Apogee altitude
485.55 km
Perigee altitude
484.229 km
Semi-major axis
6,863.027 km
Eccentricity
0.0001
Inclination
43.0006°
RAAN
343.0283°
Arg. of periapsis
248.1071°
True anomaly
111.97812°
Mean anomaly
111.9679°
Eccentric anomaly
111.97301°
Mean motion
3.81742 °/min
Orbital period
94.3 mins
BSTAR
0.0016846
Loading maneuver chart data...
Computing Atmospheric mass density...
Loading historical data...
Loading historical data...
Loading historical data...
Loading historical data...
Loading historical data...
Loading historical data...
Loading historical data...

Documentation

Showing up to 5 results
|